Wind_Speed
69 68 62 47 33 26 29 24 14 5 16 28 31 30 20 18 23 16 14 10 14 14 18 20 23 30 25 29 27 28 30 29 32 30 30 30 29 27 27 25 26 24 25 20
62 55 46 42 39 33 28 24 15 12 19 33 28 27 22 21 21 18 17 9 11 15 21 22 25 33 27 27 26 27 28 29 30 29 27 29 26 26 25 25 27 26 23 20
44 32 43 41 38 36 27 26 15 13 24 34 31 25 24 19 20 18 13 14 13 18 18 23 23 28 26 23 24 26 26 29 28 27 27 26 24 25 24 26 27 22 19 16
42 38 43 43 41 36 33 27 23 20 30 33 34 31 27 25 24 17 12 15 11 10 10 20 19 19 22 20 21 23 26 26 28 25 26 26 23 26 22 25 26 21 14 10
45 46 48 46 40 36 33 28 27 26 31 39 38 37 20 27 21 15 13 8 6 8 16 22 20 19 19 16 20 22 23 25 27 25 26 23 21 24 20 24 24 18 14 10
50 48 45 40 40 40 32 33 34 34 36 47 33 33 15 19 10 20 7 6 5 14 17 21 21 17 16 15 19 20 22 24 23 22 24 17 18 21 21 25 20 19 12 9
58 58 53 47 46 46 43 42 42 44 46 48 27 38 7 16 16 15 13 7 7 13 16 22 17 17 16 17 18 19 22 23 21 22 19 16 17 20 19 18 17 18 8 6
49 55 54 51 52 49 45 45 49 52 47 42 29 30 12 13 20 17 9 1 5 14 19 22 17 16 14 13 15 17 21 20 21 20 14 14 16 17 16 19 13 14 4 7
52 50 45 44 47 48 48 50 50 45 41 35 33 24 23 25 21 10 5 1 7 15 17 22 15 15 13 12 12 17 18 17 18 16 10 14 15 14 14 15 12 14 7 3
52 46 41 39 41 41 43 44 48 47 43 40 31 26 26 27 23 10 4 2 7 16 17 21 13 15 11 9 11 16 14 16 15 11 11 13 14 12 15 11 10 15 8 6
56 50 37 40 43 42 44 48 48 43 40 38 29 26 23 28 19 11 5 2 9 15 20 13 14 10 9 6 10 12 13 12 12 10 9 12 12 13 13 12 11 11 11 11
62 57 43 39 40 37 40 43 44 40 39 33 29 24 23 22 21 10 6 4 8 14 18 12 11 10 11 5 9 8 10 10 12 9 9 11 12 7 15 13 15 9 11 10
68 62 52 45 43 41 43 40 35 37 36 32 30 23 30 25 14 12 9 6 7 14 17 9 7 8 10 5 7 8 7 10 10 8 10 11 13 10 11 12 14 11 14 14
70 66 59 52 46 42 37 41 42 41 37 30 25 25 29 21 13 12 10 7 7 11 13 8 6 8 9 4 6 8 6 7 9 9 7 8 12 13 12 10 12 11 8 11
71 67 62 56 50 42 43 40 40 39 30 32 22 28 27 20 17 13 12 7 3 11 8 8 5 6 7 4 5 7 6 6 7 9 7 8 9 11 12 8 9 12 13 12
68 67 67 61 52 47 46 44 40 35 36 32 28 30 26 20 18 16 11 7 2 13 5 8 6 6 5 5 5 6 7 5 5 6 8 9 8 10 13 15 12 11 13 15
70 68 67 64 55 51 56 50 44 36 32 32 31 30 28 24 21 15 12 8 4 11 6 6 7 6 6 4 5 6 6 6 5 5 6 10 11 12 18 18 17 16 18 19
75 72 69 64 60 64 52 50 46 38 33 31 32 29 29 25 19 17 14 10 7 11 6 3 5 6 7 5 3 4 4 5 5 5 5 9 13 13 15 17 17 17 18 20
71 75 72 68 61 59 56 52 49 44 40 36 33 26 31 29 26 22 17 11 11 11 8 6 6 6 7 6 5 4 4 4 3 5 6 6 10 13 13 16 17 17 17 19
66 73 73 71 63 62 65 54 50 44 45 38 35 34 28 29 33 25 18 13 12 10 9 8 8 8 9 9 5 5 4 4 3 3 6 6 7 11 13 16 17 17 17 18
60 67 65 65 65 61 66 59 53 55 48 44 36 36 35 33 31 25 24 16 15 11 10 6 8 10 7 10 9 6 4 4 4 3 6 7 8 8 8 9 11 13 12 13
59 60 60 56 57 61 56 51 55 54 49 46 38 32 35 35 31 30 28 20 17 14 11 7 7 9 10 9 12 9 7 5 5 6 5 7 8 7 6 7 7 9 12 14
52 62 57 59 57 61 57 46 61 56 53 46 43 38 35 31 32 29 28 23 18 18 14 11 10 10 12 8 13 13 8 8 7 8 7 6 7 8 8 7 8 9 11 13
41 60 59 55 51 56 56 52 61 62 54 49 45 39 33 36 31 29 25 20 17 18 18 14 14 13 11 11 10 11 10 13 10 8 10 9 7 8 9 9 8 9 11 10
40 55 62 60 54 52 54 57 63 55 56 52 49 42 40 38 35 29 25 22 18 16 16 17 16 16 14 10 10 8 12 15 14 11 11 11 9 8 9 8 8 10 12 10
41 45 61 60 60 54 60 55 62 59 63 52 52 48 45 45 41 33 28 27 23 19 18 18 21 21 17 12 12 12 11 17 17 14 12 13 12 11 10 10 9 9 11 11
Wind_Direction
235 238 241 248 257 257 257 266 238 213 244 233 224 231 208 219 227 241 251 273 308 310 304 305 316 314 309 310 309 313 312 317 315 313 314 312 315 316 321 324 326 323 317 309
238 237 241 245 243 248 259 260 240 232 240 243 234 233 218 240 239 238 254 268 292 299 310 322 314 306 308 305 311 311 314 316 313 313 312 312 313 314 319 323 319 321 322 318
238 237 244 232 237 246 251 251 254 235 237 243 233 232 240 238 243 254 274 282 309 325 323 308 308 299 295 303 312 312 315 315 312 311 310 315 308 308 318 320 323 321 323 326
234 224 224 230 235 242 242 250 248 233 233 238 243 241 240 237 244 255 273 293 318 318 310 330 300 296 293 307 312 312 315 315 309 309 309 312 306 308 321 328 333 324 331 334
231 231 229 226 229 240 244 250 246 230 233 232 236 253 223 240 245 272 268 307 282 280 302 336 330 311 306 314 316 317 316 312 307 310 308 308 305 318 324 325 331 332 333 341
230 232 233 231 240 242 243 235 235 231 227 235 225 251 235 237 260 255 260 201 289 292 305 340 328 313 308 314 320 317 313 309 314 312 314 307 316 331 327 333 331 332 328 337
222 230 229 229 233 230 228 225 226 233 230 241 225 242 183 226 239 241 191 199 297 332 317 336 323 316 312 304 313 311 312 314 311 309 316 311 321 331 339 339 343 342 332 350
227 229 234 231 230 232 231 229 229 230 233 241 228 240 187 205 223 225 198 207 306 303 311 332 317 314 315 310 313 310 315 314 309 313 310 318 325 334 336 348 350 3 4 41
222 224 227 232 232 233 233 229 229 232 237 243 239 231 198 218 220 223 158 174 315 311 321 329 311 315 299 316 310 311 319 316 319 325 322 324 329 339 342 351 7 14 21 44
219 224 223 219 226 214 222 231 222 226 232 235 236 217 214 218 217 192 188 257 325 319 325 321 320 326 319 309 308 314 321 325 332 325 327 330 338 342 338 357 359 12 32 77
209 216 214 206 207 211 213 214 214 222 234 237 235 225 214 220 211 199 162 297 319 321 318 332 334 347 328 308 304 318 329 333 345 334 343 354 0 355 23 22 20 32 47 66
207 208 202 206 212 209 212 220 215 222 227 227 228 213 209 213 221 191 199 261 316 307 334 331 335 337 329 292 303 322 345 3 8 12 22 22 19 33 30 34 36 43 53 73
204 205 199 200 205 206 207 207 207 222 224 219 221 184 206 212 209 201 207 251 295 311 341 322 317 320 331 288 307 315 326 358 4 10 20 38 26 30 39 41 39 54 64 79
203 204 202 197 200 201 200 204 208 217 219 213 214 184 205 205 192 213 215 231 279 320 333 309 298 297 328 295 309 309 325 3 9 15 16 39 37 41 53 47 50 68 99 69
203 204 204 197 201 198 203 210 214 216 213 213 203 202 204 198 197 208 218 208 292 307 315 303 298 285 318 317 320 310 331 10 19 26 33 38 39 43 39 57 76 52 87 99
202 202 204 202 201 199 205 204 212 216 213 214 201 200 207 203 209 200 206 188 233 285 318 270 303 279 298 329 346 316 332 14 30 42 36 40 53 57 60 77 84 69 72 64
201 201 203 203 199 202 208 206 208 210 210 217 205 195 202 204 210 210 217 203 217 246 296 271 284 292 271 312 355 330 327 359 42 52 49 57 74 77 81 88 86 85 78 70
203 203 202 201 196 204 207 208 210 208 211 210 201 194 205 212 215 213 215 203 213 214 257 289 289 291 257 270 322 338 320 344 34 79 86 79 84 80 82 87 84 79 81 75
204 204 203 204 199 206 209 207 212 209 206 205 197 184 197 211 223 218 215 191 194 188 231 263 265 284 244 261 300 317 334 304 359 103 116 98 92 93 89 87 87 84 82 82
204 205 203 207 201 203 212 202 204 208 211 209 203 191 193 209 220 217 218 201 189 189 196 245 268 252 241 248 269 299 327 312 290 147 139 126 111 98 96 97 89 85 83 82
205 207 205 209 203 205 208 206 205 209 210 210 211 203 198 215 220 226 229 210 193 196 206 226 253 247 251 232 238 260 281 301 263 214 168 153 140 123 106 92 92 95 87 85
208 211 210 212 207 206 211 200 200 211 214 208 207 212 215 210 219 223 227 217 208 207 220 191 237 246 249 231 235 245 247 267 261 240 190 173 162 146 138 125 104 96 97 94
192 207 212 209 209 204 207 201 203 208 213 210 212 206 213 206 220 217 218 219 215 208 216 198 222 250 250 241 224 239 244 242 256 237 230 190 184 169 157 145 132 127 115 106
188 199 210 210 208 209 210 207 201 209 210 211 213 204 200 203 210 204 209 205 204 209 209 212 216 242 256 247 233 238 241 230 240 236 228 219 201 185 177 160 150 149 141 127
218 190 204 210 208 212 210 208 200 209 208 209 211 213 211 201 201 198 205 214 211 208 209 212 213 228 248 239 228 240 234 221 228 235 225 221 213 205 187 177 170 170 167 162
217 187 191 206 205 209 211 210 204 207 211 210 211 212 211 213 214 212 208 214 218 215 218 211 217 228 236 246 225 230 234 221 226 230 227 226 218 213 204 205 203 203 193 194
Height
5742 5748 5745 5762 5768 5774 5775 5773 5773 5778 5775 5772 5772 5773 5780 5783 5783 5786 5787 5787 5786 5784 5785 5784 5782 5778 5774 5770 5766 5762 5759 5753 5749 5745 5740 5735 5731 5726 5720 5714 5708 5701 5695 5691
5736 5733 5748 5758 5762 5763 5765 5767 5771 5774 5772 5768 5771 5773 5776 5777 5778 5781 5781 5781 5780 5781 5781 5779 5776 5774 5770 5765 5762 5758 5754 5750 5746 5741 5736 5732 5728 5723 5717 5711 5705 5699 5693 5688
5724 5738 5745 5749 5755 5754 5759 5761 5769 5770 5765 5765 5767 5771 5772 5773 5774 5776 5776 5776 5776 5776 5777 5775 5772 5770 5765 5761 5758 5754 5750 5747 5742 5737 5732 5729 5725 5720 5715 5709 5702 5695 5691 5686
5716 5728 5733 5739 5742 5749 5751 5760 5762 5763 5760 5762 5763 5764 5767 5769 5769 5770 5771 5772 5773 5774 5774 5771 5766 5763 5760 5757 5753 5750 5747 5743 5738 5734 5729 5726 5721 5717 5711 5706 5699 5694 5690 5685
5712 5719 5723 5729 5735 5744 5748 5754 5754 5757 5755 5755 5756 5755 5765 5762 5764 5768 5767 5769 5771 5771 5770 5765 5760 5758 5756 5752 5750 5747 5743 5739 5734 5730 5726 5723 5718 5714 5708 5703 5698 5692 5689 5685
5701 5708 5714 5725 5731 5736 5745 5744 5746 5747 5747 5739 5755 5753 5756 5759 5762 5763 5766 5767 5768 5766 5765 5758 5756 5754 5752 5750 5747 5744 5740 5736 5731 5727 5724 5720 5716 5711 5706 5701 5696 5692 5688 5685
5686 5692 5704 5712 5716 5721 5729 5732 5733 5736 5735 5731 5754 5747 5755 5755 5757 5760 5761 5764 5764 5763 5760 5755 5753 5750 5749 5747 5745 5741 5737 5733 5729 5725 5722 5718 5715 5709 5705 5700 5695 5690 5687 5685
5680 5686 5692 5702 5707 5713 5721 5726 5725 5724 5729 5735 5748 5743 5753 5753 5754 5757 5759 5758 5759 5760 5757 5753 5749 5748 5746 5745 5741 5738 5735 5730 5726 5723 5720 5717 5713 5707 5703 5699 5695 5690 5687 5686
5666 5673 5684 5690 5698 5706 5712 5712 5721 5725 5729 5734 5738 5745 5747 5747 5751 5754 5754 5755 5756 5755 5753 5749 5747 5745 5744 5742 5739 5736 5733 5729 5725 5721 5719 5715 5711 5707 5702 5698 5696 5691 5688 5687
5657 5665 5674 5685 5688 5696 5700 5707 5713 5718 5721 5724 5731 5737 5741 5744 5748 5750 5751 5752 5753 5752 5747 5746 5743 5742 5741 5739 5737 5735 5732 5727 5724 5721 5719 5714 5710 5706 5702 5699 5696 5693 5690 5689
5645 5654 5667 5673 5677 5686 5690 5693 5703 5712 5715 5719 5726 5733 5738 5740 5744 5746 5747 5749 5750 5748 5746 5743 5741 5739 5739 5738 5736 5734 5731 5727 5724 5721 5718 5714 5711 5707 5704 5700 5698 5695 5693 5691
5635 5644 5657 5668 5673 5680 5686 5692 5699 5707 5709 5715 5722 5730 5732 5737 5740 5742 5744 5747 5747 5746 5743 5741 5740 5740 5739 5737 5736 5734 5732 5728 5725 5722 5719 5716 5713 5709 5706 5703 5701 5698 5696 5695
5621 5636 5647 5655 5663 5669 5676 5686 5697 5699 5704 5711 5717 5728 5726 5731 5735 5738 5741 5744 5745 5743 5741 5740 5740 5740 5739 5737 5736 5734 5732 5729 5726 5723 5720 5718 5715 5711 5709 5707 5705 5704 5702 5700
5611 5626 5639 5650 5660 5669 5676 5680 5685 5690 5697 5709 5715 5720 5723 5728 5730 5735 5739 5741 5742 5740 5739 5739 5740 5740 5739 5737 5735 5734 5733 5730 5727 5725 5723 5721 5718 5714 5712 5711 5709 5708 5706 5705
5605 5620 5632 5644 5650 5662 5669 5677 5681 5684 5697 5700 5714 5717 5721 5725 5728 5733 5736 5738 5739 5738 5738 5738 5739 5738 5738 5737 5735 5735 5733 5731 5728 5727 5725 5723 5721 5718 5715 5714 5713 5713 5710 5709
5597 5610 5621 5633 5646 5654 5659 5665 5674 5683 5689 5697 5707 5712 5717 5721 5725 5729 5733 5735 5737 5737 5736 5737 5737 5738 5738 5737 5735 5735 5734 5732 5730 5729 5727 5726 5724 5722 5719 5717 5717 5717 5715 5713
5588 5599 5611 5628 5640 5645 5643 5655 5666 5676 5686 5694 5700 5710 5713 5716 5721 5726 5730 5732 5735 5736 5736 5736 5736 5736 5738 5737 5736 5735 5735 5734 5732 5730 5730 5729 5728 5726 5724 5723 5722 5721 5719 5718
5579 5591 5604 5618 5623 5624 5651 5654 5662 5672 5681 5689 5694 5701 5710 5714 5719 5722 5726 5730 5733 5734 5734 5734 5734 5736 5737 5737 5737 5735 5736 5735 5734 5733 5732 5731 5731 5730 5729 5728 5727 5726 5725 5723
5573 5583 5597 5605 5616 5635 5645 5650 5655 5662 5675 5683 5690 5697 5704 5710 5713 5716 5722 5727 5731 5732 5732 5733 5733 5735 5736 5737 5737 5736 5736 5736 5736 5735 5736 5734 5733 5734 5733 5732 5732 5731 5731 5729
5569 5577 5588 5599 5612 5623 5631 5642 5652 5663 5668 5680 5687 5692 5698 5703 5705 5712 5719 5724 5727 5729 5731 5731 5731 5733 5735 5736 5737 5738 5736 5736 5737 5737 5737 5738 5737 5736 5737 5737 5737 5737 5736 5735
5563 5571 5584 5589 5604 5616 5622 5635 5646 5649 5665 5671 5682 5688 5691 5696 5704 5712 5715 5719 5724 5726 5728 5729 5729 5731 5734 5735 5736 5737 5737 5737 5737 5738 5739 5740 5740 5740 5740 5740 5740 5740 5740 5740
5558 5568 5578 5584 5597 5608 5615 5627 5640 5644 5654 5664 5673 5683 5688 5694 5700 5705 5709 5715 5720 5723 5726 5726 5727 5728 5731 5733 5735 5736 5737 5737 5738 5739 5740 5740 5741 5742 5743 5743 5743 5743 5743 5743
5554 5563 5568 5580 5590 5600 5609 5620 5629 5636 5645 5656 5666 5673 5682 5690 5693 5700 5705 5709 5715 5720 5722 5723 5725 5726 5728 5731 5733 5734 5736 5736 5737 5739 5740 5741 5742 5743 5744 5745 5746 5746 5747 5747
5543 5553 5563 5577 5585 5596 5605 5615 5623 5628 5639 5648 5657 5667 5674 5681 5689 5696 5700 5704 5709 5714 5718 5719 5722 5724 5724 5727 5730 5732 5734 5735 5736 5738 5739 5740 5742 5743 5745 5747 5748 5749 5749 5750
5534 5542 5556 5570 5581 5589 5599 5607 5617 5622 5633 5641 5651 5661 5670 5676 5683 5689 5694 5698 5704 5709 5712 5716 5718 5720 5721 5723 5727 5730 5731 5734 5735 5736 5739 5740 5741 5742 5745 5747 5749 5750 5751 5752
5526 5537 5549 5561 5571 5579 5589 5598 5608 5616 5626 5635 5645 5653 5663 5670 5675 5682 5688 5693 5699 5703 5707 5712 5714 5716 5718 5719 5723 5727 5729 5731 5733 5735 5737 5739 5740 5742 5744 5746 5748 5750 5751 5752